Weather History for Minot, ND

Change the Weather History Date:

Tuesday, October 18, 2011

  Actual Average Record
Temperature  
Mean Temperature 41 °F 44 °F  
Max Temperature 53 °F 54 °F 80 °F (2000)
Min Temperature 28 °F 33 °F 8 °F (1919)
Degree Days  
Heating Degree Days 24 21  
Month to date heating degree days 207 317  
Since 1 July heating degree days 379 637  
Cooling Degree Days 0 0  
Month to date cooling degree days 9 0  
Year to date cooling degree days 508 444  
Moisture  
Dew Point 29 °F    
Average Humidity 68    
Maximum Humidity 92    
Minimum Humidity 44    
Precipitation  
Precipitation 0.00 in 0.04 in 1.89 in (1994)
Month to date precipitation 0.73 0.76  
Year to date precipitation 21.81 15.66  
Sea Level Pressure  
Sea Level Pressure 30.23 in    
Wind  
Wind Speed 9 mph (WNW)    
Max Wind Speed 17 mph    
Max Gust Speed 23 mph    
Visibility 10 miles    
Events      
T = Trace of Precipitation, MM = Missing Value Source: NWS Daily Summary

Daily Weather History Graph

Daily Weather History Graph

Search for Another Location

Airport:

Trip Planner

Search our weather history database for the weather conditions in past years. The results will help you decide how hot, cold, wet, or windy it might be!

Date:

Astronomy

Oct. 18, 2011 Rise Set
Actual Time 8:08 AM CDT 6:50 PM CDT
Civil Twilight 7:37 AM CDT 7:22 PM CDT
Nautical Twilight 7:01 AM CDT 7:58 PM CDT
Astronomical Twilight 6:24 AM CDT 8:34 PM CDT
Moon 11:18 PM CDT (10/18) 2:18 PM CDT (10/18)
Length of Visible Light 11h 45m
Length of Day
10h 41m
Waning Gibbous, 64% of the Moon is Illuminated
Oct 18
Waning Gibbous
Oct 19
Last Quarter
Oct 26
New
Nov 2
First Quarter
Nov 10
Full

Hourly Weather History & Observations

Time (CDT) Temp. Windchill Dew Point Humidity Pressure Visibility Wind Dir Wind Speed Gust Speed Precip Events Conditions
12:54 AM 37.4 °F 30.3 °F 30.2 °F 75% 30.13 in 10.0 mi WNW 10.4 mph - N/A   Clear
1:54 AM 36.0 °F 28.5 °F 28.9 °F 76% 30.17 in 10.0 mi WNW 10.4 mph - N/A   Clear
2:54 AM 36.0 °F 28.0 °F 28.9 °F 76% 30.18 in 10.0 mi West 11.5 mph - N/A   Clear
3:54 AM 34.0 °F 28.0 °F 28.9 °F 82% 30.19 in 10.0 mi West 6.9 mph - N/A   Clear
4:54 AM 30.9 °F 24.3 °F 28.0 °F 89% 30.21 in 10.0 mi WSW 6.9 mph - N/A   Clear
5:54 AM 30.9 °F 24.3 °F 28.0 °F 89% 30.22 in 10.0 mi WSW 6.9 mph - N/A   Clear
6:54 AM 30.2 °F 23.4 °F 26.6 °F 86% 30.18 in 10.0 mi WSW 6.9 mph - N/A   Clear
7:54 AM 28.9 °F 21.9 °F 27.0 °F 92% 30.24 in 10.0 mi SW 6.9 mph - N/A   Clear
8:54 AM 30.2 °F 25.4 °F 28.4 °F 93% 30.19 in 10.0 mi WSW 4.6 mph - N/A   Clear
9:54 AM 37.9 °F 33.5 °F 30.9 °F 76% 30.26 in 10.0 mi West 5.8 mph - N/A   Scattered Clouds
10:54 AM 43.0 °F 39.5 °F 30.9 °F 62% 30.25 in 10.0 mi WNW 5.8 mph - N/A   Clear
11:54 AM 46.9 °F - 32.0 °F 56% 30.25 in 10.0 mi WNW 6.9 mph - N/A   Clear
12:54 PM 50.0 °F - 32.0 °F 50% 30.25 in 10.0 mi WNW 11.5 mph - N/A   Partly Cloudy
1:54 PM 50.0 °F - 30.9 °F 48% 30.25 in 10.0 mi NW 12.7 mph 20.7 mph N/A   Partly Cloudy
2:54 PM 52.0 °F - 30.9 °F 45% 30.24 in 10.0 mi NW 16.1 mph 21.9 mph N/A   Partly Cloudy
3:54 PM 53.1 °F - 32.0 °F 45% 30.24 in 10.0 mi NW 15.0 mph 21.9 mph N/A   Overcast
4:54 PM 51.1 °F - 30.0 °F 44% 30.24 in 10.0 mi NNW 15.0 mph - N/A   Overcast
5:54 PM 48.9 °F - 28.9 °F 46% 30.25 in 10.0 mi NNW 11.5 mph - N/A   Overcast
6:54 PM 46.0 °F 42.5 °F 30.0 °F 54% 30.27 in 10.0 mi NW 6.9 mph - N/A   Overcast
7:54 PM 44.1 °F 39.5 °F 30.9 °F 60% 30.27 in 10.0 mi WNW 8.1 mph - N/A   Overcast
8:54 PM 36.0 °F 32.1 °F 28.0 °F 73% 30.28 in 10.0 mi NW 4.6 mph - N/A   Clear
9:54 PM 33.1 °F 27.7 °F 28.0 °F 82% 30.29 in 10.0 mi NNW 5.8 mph - N/A   Clear
10:54 PM 32.0 °F 26.4 °F 26.1 °F 79% 30.29 in 10.0 mi NNW 5.8 mph - N/A   Clear
11:54 PM 30.9 °F 24.3 °F 25.0 °F 79% 30.28 in 10.0 mi NNW 6.9 mph - N/A   Clear